4XHLK LLRS-LLHZ

Flight info

Callsign 4XHLK
Flight time 0h 30m
Altitude 1000
Route SUPER TYONA CLORE RIDNG HTZUK ARENA APOLN SFAIM VINGT PELEG OLGAH HADRA SHARO DEROR BAZRA
Aircraft VL3/L-S/L

Departure

Time 2026-04-29 19:08
Airport Rishon Lezion Airfield (LLRS)

Arrival

Time 2026-04-29 19:38
Airport Herzliya Airport (LLHZ)
Time Latitude Longitude Altitude Speed Heading
2026-04-29 19:05 31.96893 34.75314 71 ft 0 kts 180°
2026-04-29 19:06 31.96890 34.75314 72 ft 0 kts 178°
2026-04-29 19:07 31.96859 34.75336 69 ft 22 kts 176°
2026-04-29 19:07 31.96796 34.75334 64 ft 33 kts 182°
2026-04-29 19:07 31.96507 34.75357 71 ft 0 kts 24°
2026-04-29 19:07 31.96541 34.75357 73 ft 14 kts
2026-04-29 19:08 31.96904 34.75351 207 ft 73 kts 356°
2026-04-29 19:08 31.97318 34.74986 542 ft 91 kts 315°
2026-04-29 19:08 31.97775 34.74386 688 ft 107 kts 312°
2026-04-29 19:08 31.98199 34.73651 896 ft 107 kts 308°
2026-04-29 19:09 31.98650 34.72952 1067 ft 112 kts 313°
2026-04-29 19:09 31.99297 34.72510 1192 ft 109 kts 354°
2026-04-29 19:09 32.00069 34.72497 1231 ft 114 kts
2026-04-29 19:09 32.00849 34.72573 1168 ft 113 kts
2026-04-29 19:10 32.01592 34.72705 1175 ft 102 kts 11°
2026-04-29 19:10 32.02281 34.72867 1217 ft 99 kts 12°
2026-04-29 19:10 32.02959 34.73036 1260 ft 101 kts 10°
2026-04-29 19:10 32.03661 34.73189 1239 ft 104 kts 13°
2026-04-29 19:11 32.04341 34.73408 1237 ft 98 kts 19°
2026-04-29 19:11 32.04763 34.73585 1265 ft 94 kts 18°
2026-04-29 19:11 32.05414 34.73846 1234 ft 102 kts 18°
2026-04-29 19:11 32.06291 34.74206 1279 ft 103 kts 19°
2026-04-29 19:12 32.06978 34.74487 1181 ft 108 kts 20°
2026-04-29 19:12 32.07452 34.74694 1103 ft 107 kts 19°
2026-04-29 19:12 32.08117 34.75004 1170 ft 101 kts 22°
2026-04-29 19:12 32.08369 34.75139 1165 ft 102 kts 24°
2026-04-29 19:13 32.09258 34.75539 1198 ft 100 kts 18°
2026-04-29 19:13 32.09918 34.75777 1254 ft 99 kts 15°
2026-04-29 19:13 32.10591 34.76011 1272 ft 102 kts 16°
2026-04-29 19:13 32.11277 34.76244 1246 ft 105 kts 16°
2026-04-29 19:14 32.11991 34.76480 1262 ft 104 kts 16°
2026-04-29 19:14 32.12686 34.76732 1289 ft 107 kts 19°
2026-04-29 19:14 32.13419 34.77030 1146 ft 115 kts 19°
2026-04-29 19:14 32.14153 34.77324 1158 ft 108 kts 18°
2026-04-29 19:15 32.14852 34.77619 1202 ft 107 kts 19°
2026-04-29 19:15 32.15554 34.77891 1221 ft 107 kts 17°
2026-04-29 19:15 32.16272 34.78146 1226 ft 108 kts 15°
2026-04-29 19:15 32.17015 34.78338 1207 ft 106 kts 11°
2026-04-29 19:16 32.17739 34.78508 1181 ft 109 kts 11°
2026-04-29 19:16 32.18482 34.78670 1158 ft 105 kts
2026-04-29 19:16 32.19179 34.78844 1294 ft 98 kts 12°
2026-04-29 19:16 32.19801 34.79126 1420 ft 98 kts 24°
2026-04-29 19:17 32.20411 34.79514 1463 ft 103 kts 28°
2026-04-29 19:17 32.21025 34.79967 1481 ft 105 kts 32°
2026-04-29 19:17 32.21662 34.80442 1434 ft 109 kts 31°
2026-04-29 19:17 32.22350 34.80856 1340 ft 112 kts 22°
2026-04-29 19:18 32.23071 34.81192 1285 ft 108 kts 21°
2026-04-29 19:18 32.23505 34.81480 1290 ft 110 kts 44°
2026-04-29 19:18 32.24102 34.82455 1356 ft 109 kts 38°
2026-04-29 19:18 32.24697 34.83026 1432 ft 109 kts 37°
2026-04-29 19:19 32.25315 34.83579 1612 ft 109 kts 29°
2026-04-29 19:19 32.25946 34.84079 1648 ft 111 kts 36°
2026-04-29 19:19 32.26578 34.84613 1718 ft 110 kts 32°
2026-04-29 19:19 32.27232 34.85088 1834 ft 113 kts 25°
2026-04-29 19:20 32.27984 34.85312 1894 ft 109 kts 347°
2026-04-29 19:20 32.28782 34.85115 1747 ft 117 kts
2026-04-29 19:20 32.29554 34.85280 1848 ft 112 kts 11°
2026-04-29 19:20 32.30299 34.85495 1993 ft 110 kts 14°
2026-04-29 19:21 32.31014 34.85808 2059 ft 111 kts 25°
2026-04-29 19:21 32.31710 34.86192 2166 ft 111 kts 20°
2026-04-29 19:21 32.32445 34.86521 2081 ft 120 kts
2026-04-29 19:21 32.33277 34.86643 1909 ft 123 kts 12°
2026-04-29 19:22 32.33731 34.86329 2200 ft 105 kts 239°
2026-04-29 19:22 32.32938 34.85932 2007 ft 129 kts 198°
2026-04-29 19:22 32.32071 34.85659 1958 ft 132 kts 196°
2026-04-29 19:22 32.31167 34.85391 1790 ft 136 kts 194°
2026-04-29 19:23 32.30239 34.85142 1603 ft 136 kts 192°
2026-04-29 19:23 32.29325 34.84978 1583 ft 131 kts 189°
2026-04-29 19:23 32.28420 34.84832 1512 ft 132 kts 189°
2026-04-29 19:23 32.27533 34.84798 1585 ft 123 kts 148°
2026-04-29 19:24 32.27420 34.85673 1554 ft 118 kts 49°
2026-04-29 19:24 32.28174 34.86026 1365 ft 119 kts 14°
2026-04-29 19:24 32.28976 34.86192 1271 ft 117 kts
2026-04-29 19:24 32.29808 34.86291 1082 ft 118 kts
2026-04-29 19:25 32.30474 34.86109 1168 ft 107 kts 285°
2026-04-29 19:25 32.29867 34.85615 1036 ft 124 kts 191°
2026-04-29 19:25 32.29328 34.85920 1132 ft 109 kts 62°
2026-04-29 19:25 32.29975 34.86356 1143 ft 104 kts 19°
2026-04-29 19:26 32.30664 34.86615 1232 ft 106 kts 18°
2026-04-29 19:26 32.31386 34.86878 1236 ft 112 kts 14°
2026-04-29 19:26 32.32153 34.87100 1210 ft 111 kts 11°
2026-04-29 19:26 32.32889 34.87275 1335 ft 106 kts 12°
2026-04-29 19:27 32.33608 34.87442 1374 ft 106 kts 11°
2026-04-29 19:27 32.34326 34.87598 1482 ft 102 kts
2026-04-29 19:27 32.35043 34.87754 1526 ft 106 kts 12°
2026-04-29 19:27 32.35770 34.87936 1634 ft 111 kts 12°
2026-04-29 19:28 32.36537 34.88125 1603 ft 116 kts 11°
2026-04-29 19:28 32.37322 34.88287 1532 ft 117 kts
2026-04-29 19:28 32.38122 34.88438 1505 ft 115 kts 12°
2026-04-29 19:28 32.38892 34.88605 1577 ft 111 kts 10°
2026-04-29 19:29 32.39647 34.88700 1605 ft 108 kts 356°
2026-04-29 19:29 32.40380 34.88578 1726 ft 109 kts 343°
2026-04-29 19:29 32.41082 34.88479 1818 ft 107 kts 14°
2026-04-29 19:29 32.41279 34.87998 1853 ft 122 kts 218°
2026-04-29 19:30 32.40446 34.87725 1775 ft 127 kts 201°
2026-04-29 19:30 32.39596 34.87308 1697 ft 130 kts 203°
2026-04-29 19:30 32.38755 34.86961 1608 ft 133 kts 195°
2026-04-29 19:30 32.37903 34.86467 1259 ft 145 kts 223°
2026-04-29 19:31 32.37051 34.85887 842 ft 136 kts 193°
2026-04-29 19:31 32.36161 34.85662 682 ft 127 kts 192°
2026-04-29 19:31 32.35253 34.85447 488 ft 139 kts 193°
2026-04-29 19:31 32.34336 34.85154 349 ft 136 kts 195°
2026-04-29 19:32 32.33409 34.84951 269 ft 131 kts 194°
2026-04-29 19:32 32.32533 34.84729 312 ft 125 kts 193°
2026-04-29 19:32 32.31666 34.84539 298 ft 128 kts 193°
2026-04-29 19:32 32.30803 34.84288 315 ft 128 kts 194°
2026-04-29 19:33 32.29937 34.84027 356 ft 127 kts 208°
2026-04-29 19:33 32.29275 34.84126 805 ft 107 kts 112°
2026-04-29 19:33 32.29240 34.85033 848 ft 119 kts 86°
2026-04-29 19:33 32.28971 34.85868 827 ft 125 kts 175°
2026-04-29 19:34 32.28092 34.85720 805 ft 128 kts 186°
2026-04-29 19:34 32.27204 34.85640 809 ft 128 kts 182°
2026-04-29 19:34 32.26317 34.85594 817 ft 126 kts 169°
2026-04-29 19:34 32.25665 34.86144 1071 ft 116 kts 131°
2026-04-29 19:35 32.25141 34.86916 1123 ft 123 kts 123°
2026-04-29 19:35 32.24659 34.87730 1244 ft 124 kts 128°
2026-04-29 19:35 32.23888 34.88190 1211 ft 127 kts 168°
2026-04-29 19:35 32.22990 34.88314 1174 ft 130 kts 176°
2026-04-29 19:36 32.22095 34.88370 1140 ft 128 kts 177°
2026-04-29 19:36 32.21201 34.88411 1099 ft 126 kts 181°
2026-04-29 19:36 32.20354 34.88148 1112 ft 128 kts 200°
2026-04-29 19:36 32.19536 34.87815 1261 ft 120 kts 196°
2026-04-29 19:37 32.18726 34.87527 1357 ft 120 kts 197°
2026-04-29 19:37 32.18192 34.87295 1257 ft 125 kts 203°
2026-04-29 19:37 32.17690 34.86368 986 ft 110 kts 292°
2026-04-29 19:37 32.17906 34.85575 683 ft 93 kts 287°
2026-04-29 19:38 32.17648 34.84951 419 ft 87 kts 259°
2026-04-29 19:38 32.17734 34.84451 288 ft 58 kts 294°
2026-04-29 19:38 32.17877 34.83969 170 ft 59 kts 295°
2026-04-29 19:38 32.17994 34.83561 111 ft 47 kts 296°
2026-04-29 19:39 32.18150 34.83047 249 ft 81 kts 291°
2026-04-29 19:39 32.18569 34.82725 503 ft 91 kts
2026-04-29 19:39 32.19172 34.82993 674 ft 97 kts 47°
2026-04-29 19:39 32.19167 34.83783 700 ft 114 kts 112°
2026-04-29 19:40 32.18818 34.84582 812 ft 103 kts 118°
2026-04-29 19:40 32.18279 34.85183 746 ft 114 kts 160°
2026-04-29 19:40 32.17639 34.85012 648 ft 89 kts 266°
2026-04-29 19:40 32.17736 34.84395 357 ft 71 kts 296°
2026-04-29 19:41 32.17907 34.83861 157 ft 70 kts 294°
2026-04-29 19:41 32.18057 34.83369 118 ft 57 kts 295°
2026-04-29 19:41 32.18284 34.82850 279 ft 83 kts 340°
2026-04-29 19:41 32.18916 34.82951 366 ft 100 kts 17°
2026-04-29 19:42 32.19159 34.83615 525 ft 106 kts 110°
2026-04-29 19:42 32.18985 34.84148 650 ft 104 kts 107°
2026-04-29 19:42 32.18425 34.85140 662 ft 118 kts 156°
2026-04-29 19:42 32.17655 34.85032 650 ft 100 kts 264°
2026-04-29 19:43 32.17791 34.84255 296 ft 89 kts 296°
2026-04-29 19:43 32.17967 34.83666 116 ft 59 kts 292°
2026-04-29 19:43 32.18098 34.83219 214 ft 65 kts 292°
2026-04-29 19:43 32.18454 34.82798 396 ft 92 kts
2026-04-29 19:44 32.19130 34.82985 543 ft 104 kts 31°
2026-04-29 19:44 32.19143 34.83809 661 ft 115 kts 103°
2026-04-29 19:44 32.18835 34.84739 628 ft 126 kts 111°
2026-04-29 19:44 32.18200 34.85286 598 ft 120 kts 182°
2026-04-29 19:45 32.17638 34.84919 466 ft 89 kts 266°
2026-04-29 19:45 32.17798 34.84246 238 ft 87 kts 293°
2026-04-29 19:45 32.17977 34.83632 116 ft 73 kts 292°
2026-04-29 19:45 32.18096 34.83221 97 ft 11 kts 276°